When you browse on this site, cookies collect data to enhance your experience and personalize the content and advertising you see.
Visit our Privacy Policy to learn more. By continuing to use the site, you agree to this use of cookies and data.
  • In United Kingdom
  • List of Countries
  • For 7 days
  • Water Temperature
  • Weather Map
  • Weather Widgets
  • user-avatar
    Login

    Hourly Weather Salzburg

    Today, 5 December, Thursday

    Time Temperature Precipitation Wind Pressure Humidity
    00:00 -4°C° 0 mm 2 mps 626 mmHg 59%
    01:00 -4°C° 0 mm 2 mps 627 mmHg 59%
    02:00 -4°C° 0 mm 2 mps 626 mmHg 59%
    03:00 -4°C° 0 mm 2 mps 626 mmHg 60%
    04:00 -4°C° 0 mm 2 mps 626 mmHg 60%
    05:00 -4°C° 0 mm 2 mps 626 mmHg 60%
    06:00 -4°C° 0 mm 2 mps 626 mmHg 60%
    07:00 -4°C° 0 mm 2 mps 627 mmHg 59%
    08:00 -1°C° 0 mm 1 mps 627 mmHg 61%
    09:00 0°C° 0 mm 1 mps 627 mmHg 64%
    10:00 +2°C° 0 mm 1 mps 628 mmHg 66%
    11:00 +2°C° 0 mm 1 mps 628 mmHg 70%
    12:00 +3°C° 0 mm 1 mps 628 mmHg 74%
    13:00 +3°C° 0 mm 1 mps 629 mmHg 75%
    14:00 +2°C° 0 mm 1 mps 628 mmHg 72%
    15:00 +1°C° 0 mm 1 mps 627 mmHg 69%
    16:00 0°C° 0 mm 1 mps 627 mmHg 66%
    17:00 0°C° 0 mm 1 mps 627 mmHg 66%
    18:00 -1°C° 0 mm 1 mps 627 mmHg 65%
    19:00 -1°C° 0 mm 1 mps 627 mmHg 64%
    20:00 -1°C° 0 mm 1 mps 627 mmHg 64%
    21:00 -1°C° 0 mm 1 mps 627 mmHg 63%
    22:00 -2°C° 0 mm 1 mps 627 mmHg 63%
    23:00 -2°C° 0 mm 1 mps 627 mmHg 62%

    Tomorrow, 6 December, Friday

    Time Temperature Precipitation Wind Pressure Humidity
    00:00 -2°C° 0 mm 1 mps 627 mmHg 62%
    01:00 -2°C° 0 mm 1 mps 627 mmHg 61%
    02:00 -2°C° 0 mm 1 mps 626 mmHg 61%
    03:00 -2°C° 0 mm 1 mps 626 mmHg 61%
    04:00 -2°C° 0 mm 1 mps 626 mmHg 61%
    05:00 -2°C° 0 mm 1 mps 626 mmHg 60%
    06:00 -2°C° 0 mm 1 mps 626 mmHg 59%
    07:00 -2°C° 0 mm 1 mps 626 mmHg 59%
    08:00 -1°C° 0 mm 1 mps 626 mmHg 61%
    09:00 0°C° 0 mm 1 mps 627 mmHg 63%
    10:00 +1°C° 0 mm 1 mps 627 mmHg 65%
    11:00 +2°C° 0 mm 1 mps 627 mmHg 68%
    12:00 +1°C° 0 mm 0 mps 627 mmHg 72%
    13:00 +2°C° 0 mm 0 mps 626 mmHg 76%
    14:00 +1°C° 0 mm 0 mps 626 mmHg 72%
    15:00 +1°C° 0 mm 1 mps 625 mmHg 67%
    16:00 0°C° 0 mm 1 mps 624 mmHg 63%
    17:00 -1°C° 0 mm 1 mps 624 mmHg 61%
    18:00 -1°C° 0 mm 1 mps 624 mmHg 60%
    19:00 -2°C° 0 mm 1 mps 624 mmHg 58%
    20:00 -2°C° 0 mm 1 mps 624 mmHg 58%
    21:00 -2°C° 0 mm 1 mps 624 mmHg 59%
    22:00 -5°C° 0 mm 2 mps 623 mmHg 59%
    23:00 -5°C° 0 mm 2 mps 623 mmHg 60%

    Day after tomorrow, 7 December, Saturday

    Time Temperature Precipitation Wind Pressure Humidity
    00:00 -5°C° 0 mm 2 mps 623 mmHg 60%
    01:00 -5°C° 0 mm 2 mps 623 mmHg 61%
    02:00 -3°C° 0 mm 1 mps 622 mmHg 60%
    03:00 -3°C° 0 mm 1 mps 622 mmHg 59%
    04:00 -3°C° 0 mm 1 mps 622 mmHg 58%
    05:00 -3°C° 0 mm 1 mps 622 mmHg 60%
    06:00 -2°C° 0 mm 1 mps 623 mmHg 62%
    07:00 -3°C° 0 mm 0 mps 623 mmHg 64%
    08:00 -2°C° 0 mm 0 mps 623 mmHg 66%
    09:00 -1°C° 0 mm 1 mps 624 mmHg 69%
    10:00 0°C° 0 mm 1 mps 624 mmHg 71%
    11:00 0°C° 0.1 mm 1 mps 624 mmHg 75%
    12:00 0°C° 0.1 mm 1 mps 624 mmHg 80%
    13:00 +1°C° 0.1 mm 1 mps 624 mmHg 84%
    14:00 0°C° 0.1 mm 1 mps 624 mmHg 86%
    15:00 -1°C° 0.1 mm 1 mps 624 mmHg 88%
    16:00 -1°C° 0.1 mm 1 mps 623 mmHg 90%
    17:00 -1°C° 0.2 mm 1 mps 624 mmHg 90%
    18:00 -2°C° 0.2 mm 1 mps 624 mmHg 91%
    19:00 -2°C° 0.2 mm 1 mps 624 mmHg 92%
    20:00 -2°C° 0.2 mm 1 mps 624 mmHg 92%
    21:00 -2°C° 0.2 mm 1 mps 625 mmHg 93%
    22:00 -2°C° 0.2 mm 1 mps 625 mmHg 93%
    23:00 -2°C° 0.1 mm 1 mps 625 mmHg 94%

    8 December, Sunday

    Time Temperature Precipitation Wind Pressure Humidity
    00:00 -2°C° 0.1 mm 1 mps 625 mmHg 94%
    01:00 -2°C° 0.1 mm 1 mps 625 mmHg 95%
    02:00 -2°C° 0 mm 1 mps 624 mmHg 93%
    03:00 -3°C° 0 mm 1 mps 624 mmHg 92%
    04:00 -3°C° 0 mm 1 mps 624 mmHg 91%
    05:00 -3°C° 0 mm 1 mps 623 mmHg 89%
    06:00 -3°C° 0 mm 1 mps 623 mmHg 87%
    07:00 -4°C° 0 mm 1 mps 623 mmHg 84%
    08:00 -3°C° 0 mm 1 mps 623 mmHg 82%
    09:00 -1°C° 0 mm 1 mps 623 mmHg 79%
    10:00 0°C° 0 mm 1 mps 624 mmHg 77%
    11:00 +1°C° 0 mm 1 mps 623 mmHg 77%
    12:00 +1°C° 0 mm 1 mps 623 mmHg 77%
    13:00 +2°C° 0 mm 1 mps 623 mmHg 77%
    14:00 +2°C° 0 mm 1 mps 622 mmHg 75%
    15:00 +1°C° 0 mm 1 mps 622 mmHg 72%
    16:00 0°C° 0 mm 1 mps 622 mmHg 69%
    17:00 0°C° 0 mm 1 mps 621 mmHg 69%
    18:00 0°C° 0 mm 1 mps 621 mmHg 69%
    19:00 0°C° 0 mm 1 mps 621 mmHg 68%
    20:00 0°C° 0 mm 1 mps 621 mmHg 68%
    21:00 0°C° 0 mm 1 mps 621 mmHg 67%
    22:00 0°C° 0 mm 1 mps 620 mmHg 67%
    23:00 0°C° 0 mm 1 mps 620 mmHg 67%

    9 December, Monday

    Time Temperature Precipitation Wind Pressure Humidity
    00:00 0°C° 0 mm 1 mps 619 mmHg 67%
    01:00 0°C° 0 mm 1 mps 619 mmHg 67%
    02:00 0°C° 0 mm 1 mps 619 mmHg 70%
    03:00 -1°C° 0 mm 1 mps 618 mmHg 74%
    04:00 -1°C° 0 mm 1 mps 618 mmHg 77%
    05:00 -2°C° 0.8 mm 1 mps 618 mmHg 83%
    06:00 -2°C° 0.8 mm 1 mps 618 mmHg 89%
    07:00 -2°C° 0.8 mm 1 mps 618 mmHg 95%
    08:00 -2°C° 0.6 mm 1 mps 618 mmHg 94%
    09:00 -1°C° 0.6 mm 1 mps 618 mmHg 93%
    10:00 -1°C° 0.6 mm 1 mps 618 mmHg 92%
    11:00 0°C° 0.1 mm 1 mps 618 mmHg 87%
    12:00 0°C° 0.1 mm 1 mps 617 mmHg 82%
    13:00 +1°C° 0.1 mm 1 mps 617 mmHg 77%
    14:00 0°C° 0.1 mm 1 mps 616 mmHg 79%
    15:00 0°C° 0.1 mm 1 mps 616 mmHg 80%
    16:00 -1°C° 0.1 mm 1 mps 616 mmHg 82%
    17:00 -2°C° 0.4 mm 1 mps 616 mmHg 86%
    18:00 -4°C° 0.4 mm 2 mps 616 mmHg 90%
    19:00 -5°C° 0.4 mm 2 mps 616 mmHg 94%
    20:00 -4°C° 1.5 mm 2 mps 617 mmHg 95%
    21:00 -4°C° 1.5 mm 2 mps 617 mmHg 96%
    22:00 -4°C° 1.5 mm 2 mps 618 mmHg 97%
    23:00 -6°C° 1.7 mm 3 mps 618 mmHg 97%

    10 December, Tuesday

    Time Temperature Precipitation Wind Pressure Humidity
    00:00 -6°C° 1.7 mm 3 mps 619 mmHg 96%
    01:00 -7°C° 1.7 mm 4 mps 619 mmHg 96%
    02:00 -8°C° 1 mm 4 mps 620 mmHg 96%
    03:00 -8°C° 1 mm 4 mps 620 mmHg 96%
    04:00 -9°C° 1 mm 4 mps 621 mmHg 95%
    05:00 -9°C° 1.3 mm 4 mps 621 mmHg 95%
    06:00 -9°C° 1.3 mm 4 mps 622 mmHg 95%
    07:00 -9°C° 1.3 mm 4 mps 623 mmHg 95%
    08:00 -9°C° 0.5 mm 4 mps 623 mmHg 95%
    09:00 -8°C° 0.5 mm 3 mps 624 mmHg 94%
    10:00 -8°C° 0.5 mm 3 mps 624 mmHg 93%
    11:00 -7°C° 0.3 mm 3 mps 625 mmHg 92%
    12:00 -6°C° 0.3 mm 2 mps 625 mmHg 91%
    13:00 -5°C° 0.3 mm 2 mps 625 mmHg 89%
    14:00 -6°C° 0 mm 2 mps 624 mmHg 89%
    15:00 -6°C° 0 mm 1 mps 624 mmHg 88%
    16:00 -7°C° 0 mm 1 mps 623 mmHg 87%
    17:00 -7°C° 0 mm 1 mps 623 mmHg 83%
    18:00 -7°C° 0 mm 1 mps 623 mmHg 79%
    19:00 -8°C° 0 mm 2 mps 623 mmHg 74%
    20:00 -7°C° 0 mm 2 mps 623 mmHg 75%
    21:00 -6°C° 0 mm 2 mps 623 mmHg 77%
    22:00 -6°C° 0 mm 2 mps 624 mmHg 78%
    23:00 -5°C° 0.2 mm 2 mps 623 mmHg 82%
    Show more